Time,TemperatureF,DewpointF,PressureIn,WindDirection,WindDirectionDegrees,WindSpeedMPH,WindSpeedGustMPH,Humidity,HourlyPrecipIn,Conditions,Clouds,dailyrainin,SoftwareType,DateUTC
2013-03-27 00:00:00,19.0,5.0,-100.00,SSW,208,24.0,40.0,54,-99.99,,,-99.99,,2013-03-27 06:00:00,
2013-03-27 00:42:00,19.0,5.0,-100.00,SSW,208,24.0,40.0,54,-99.99,,,-99.99,,2013-03-27 06:42:00,
2013-03-27 00:53:00,19.0,5.0,-100.00,SSW,208,24.0,40.0,54,-99.99,,,-99.99,,2013-03-27 06:53:00,
2013-03-27 01:00:00,17.0,9.0,-100.00,SSW,196,25.0,41.0,71,-99.99,,,-99.99,,2013-03-27 07:00:00,
2013-03-27 01:43:00,17.0,9.0,-100.00,SSW,196,25.0,41.0,71,-99.99,,,-99.99,,2013-03-27 07:43:00,
2013-03-27 01:53:00,17.0,9.0,-100.00,SSW,196,25.0,41.0,71,-99.99,,,-99.99,,2013-03-27 07:53:00,
2013-03-27 02:00:00,15.0,13.0,-100.00,SSW,209,16.0,33.0,93,-99.99,,,-99.99,,2013-03-27 08:00:00,
2013-03-27 02:43:00,15.0,13.0,-100.00,SSW,209,16.0,33.0,93,-99.99,,,-99.99,,2013-03-27 08:43:00,
2013-03-27 02:52:00,15.0,13.0,-100.00,SSW,209,16.0,33.0,93,-99.99,,,-99.99,,2013-03-27 08:52:00,
2013-03-27 03:00:00,15.0,13.0,-100.00,SSW,198,19.0,34.0,94,-99.99,,,-99.99,,2013-03-27 09:00:00,
2013-03-27 03:42:00,15.0,13.0,-100.00,SSW,198,19.0,34.0,94,-99.99,,,-99.99,,2013-03-27 09:42:00,
2013-03-27 03:52:00,15.0,13.0,-100.00,SSW,198,19.0,34.0,94,-99.99,,,-99.99,,2013-03-27 09:52:00,
2013-03-27 04:00:00,14.0,13.0,-100.00,SSW,209,18.0,32.0,93,-99.99,,,-99.99,,2013-03-27 10:00:00,
2013-03-27 04:42:00,14.0,13.0,-100.00,SSW,209,18.0,32.0,93,-99.99,,,-99.99,,2013-03-27 10:42:00,
2013-03-27 04:53:00,14.0,13.0,-100.00,SSW,209,18.0,32.0,93,-99.99,,,-99.99,,2013-03-27 10:53:00,
2013-03-27 05:00:00,14.0,13.0,-100.00,SW,217,13.0,23.0,94,-99.99,,,-99.99,,2013-03-27 11:00:00,
2013-03-27 05:42:00,14.0,13.0,-100.00,SW,217,13.0,23.0,94,-99.99,,,-99.99,,2013-03-27 11:42:00,
2013-03-27 05:52:00,14.0,13.0,-100.00,SW,217,13.0,23.0,94,-99.99,,,-99.99,,2013-03-27 11:52:00,
2013-03-27 06:00:00,14.0,12.0,-100.00,SW,214,13.0,22.0,93,-99.99,,,-99.99,,2013-03-27 12:00:00,
2013-03-27 06:43:00,14.0,12.0,-100.00,SW,214,13.0,22.0,93,-99.99,,,-99.99,,2013-03-27 12:43:00,
2013-03-27 06:52:00,14.0,12.0,-100.00,SW,214,13.0,22.0,93,-99.99,,,-99.99,,2013-03-27 12:52:00,
2013-03-27 07:00:00,15.0,11.0,-100.00,SW,218,12.0,22.0,82,-99.99,,,-99.99,,2013-03-27 13:00:00,
2013-03-27 07:42:00,15.0,11.0,-100.00,SW,218,12.0,22.0,82,-99.99,,,-99.99,,2013-03-27 13:42:00,
2013-03-27 07:53:00,15.0,11.0,-100.00,SW,218,12.0,22.0,82,-99.99,,,-99.99,,2013-03-27 13:53:00,
2013-03-27 08:00:00,16.0,7.0,-100.00,SW,224,10.0,19.0,66,-99.99,,,-99.99,,2013-03-27 14:00:00,
2013-03-27 08:42:00,16.0,7.0,-100.00,SW,224,10.0,19.0,66,-99.99,,,-99.99,,2013-03-27 14:42:00,
2013-03-27 08:52:00,16.0,7.0,-100.00,SW,224,10.0,19.0,66,-99.99,,,-99.99,,2013-03-27 14:52:00,
2013-03-27 09:00:00,17.0,7.0,-100.00,SW,226,9.0,21.0,63,-99.99,,,-99.99,,2013-03-27 15:00:00,
2013-03-27 09:43:00,17.0,7.0,-100.00,SW,226,9.0,21.0,63,-99.99,,,-99.99,,2013-03-27 15:43:00,
2013-03-27 09:52:00,17.0,7.0,-100.00,SW,226,9.0,21.0,63,-99.99,,,-99.99,,2013-03-27 15:52:00,
2013-03-27 10:00:00,18.0,7.0,-100.00,SW,217,9.0,18.0,61,-99.99,,,-99.99,,2013-03-27 16:00:00,
2013-03-27 10:42:00,18.0,7.0,-100.00,SW,217,9.0,18.0,61,-99.99,,,-99.99,,2013-03-27 16:42:00,
2013-03-27 10:52:00,18.0,7.0,-100.00,SW,217,9.0,18.0,61,-99.99,,,-99.99,,2013-03-27 16:52:00,
2013-03-27 11:00:00,18.0,7.0,-100.00,SW,232,7.0,15.0,59,-99.99,,,-99.99,,2013-03-27 17:00:00,
2013-03-27 11:44:00,18.0,7.0,-100.00,SW,232,7.0,15.0,59,-99.99,,,-99.99,,2013-03-27 17:44:00,
2013-03-27 11:52:00,18.0,7.0,-100.00,SW,232,7.0,15.0,59,-99.99,,,-99.99,,2013-03-27 17:52:00,
2013-03-27 12:00:00,22.0,6.0,-100.00,SW,217,12.0,25.0,51,-99.99,,,-99.99,,2013-03-27 18:00:00,
2013-03-27 12:42:00,22.0,6.0,-100.00,SW,217,12.0,25.0,51,-99.99,,,-99.99,,2013-03-27 18:42:00,
2013-03-27 12:53:00,22.0,6.0,-100.00,SW,217,12.0,25.0,51,-99.99,,,-99.99,,2013-03-27 18:53:00,
2013-03-27 13:00:00,23.0,5.0,-100.00,SW,232,10.0,30.0,45,-99.99,,,-99.99,,2013-03-27 19:00:00,
2013-03-27 13:42:00,23.0,5.0,-100.00,SW,232,10.0,30.0,45,-99.99,,,-99.99,,2013-03-27 19:42:00,
2013-03-27 13:52:00,23.0,5.0,-100.00,SW,232,10.0,30.0,45,-99.99,,,-99.99,,2013-03-27 19:52:00,
2013-03-27 14:00:00,25.0,5.0,-100.00,South,191,15.0,33.0,43,-99.99,,,-99.99,,2013-03-27 20:00:00,
2013-03-27 14:43:00,25.0,5.0,-100.00,South,191,15.0,33.0,43,-99.99,,,-99.99,,2013-03-27 20:43:00,
2013-03-27 14:52:00,25.0,5.0,-100.00,South,191,15.0,33.0,43,-99.99,,,-99.99,,2013-03-27 20:52:00,
2013-03-27 15:00:00,26.0,5.0,-100.00,SSW,199,14.0,29.0,41,-99.99,,,-99.99,,2013-03-27 21:00:00,
2013-03-27 15:43:00,26.0,5.0,-100.00,SSW,199,14.0,29.0,41,-99.99,,,-99.99,,2013-03-27 21:43:00,
2013-03-27 15:52:00,26.0,5.0,-100.00,SSW,199,14.0,29.0,41,-99.99,,,-99.99,,2013-03-27 21:52:00,
2013-03-27 16:00:00,26.0,4.0,-100.00,SSW,195,16.0,31.0,38,-99.99,,,-99.99,,2013-03-27 22:00:00,
2013-03-27 16:42:00,26.0,4.0,-100.00,SSW,195,16.0,31.0,38,-99.99,,,-99.99,,2013-03-27 22:42:00,
2013-03-27 16:52:00,26.0,4.0,-100.00,SSW,195,16.0,31.0,38,-99.99,,,-99.99,,2013-03-27 22:52:00,
2013-03-27 17:00:00,26.0,6.0,-100.00,SSW,195,16.0,28.0,42,-99.99,,,-99.99,,2013-03-27 23:00:00,
2013-03-27 17:42:00,26.0,6.0,-100.00,SSW,195,16.0,28.0,42,-99.99,,,-99.99,,2013-03-27 23:42:00,
2013-03-27 17:52:00,26.0,6.0,-100.00,SSW,195,16.0,28.0,42,-99.99,,,-99.99,,2013-03-27 23:52:00,
2013-03-27 18:00:00,26.0,5.0,-100.00,SW,217,11.0,22.0,41,-99.99,,,-99.99,,2013-03-28 00:00:00,
2013-03-27 18:43:00,26.0,5.0,-100.00,SW,217,11.0,22.0,41,-99.99,,,-99.99,,2013-03-28 00:43:00,
2013-03-27 18:52:00,26.0,5.0,-100.00,SW,217,11.0,22.0,41,-99.99,,,-99.99,,2013-03-28 00:52:00,
2013-03-27 19:00:00,24.0,5.0,-100.00,SW,214,12.0,20.0,44,-99.99,,,-99.99,,2013-03-28 01:00:00,
2013-03-27 19:42:00,24.0,5.0,-100.00,SW,214,12.0,20.0,44,-99.99,,,-99.99,,2013-03-28 01:42:00,
2013-03-27 19:52:00,24.0,5.0,-100.00,SW,214,12.0,20.0,44,-99.99,,,-99.99,,2013-03-28 01:52:00,
2013-03-27 20:00:00,21.0,0.0,-100.00,SSW,202,15.0,27.0,38,-99.99,,,-99.99,,2013-03-28 02:00:00,
2013-03-27 21:00:00,21.0,0.0,-100.00,SSW,207,16.0,29.0,40,-99.99,,,-99.99,,2013-03-28 03:00:00,
2013-03-27 21:43:00,21.0,0.0,-100.00,SSW,207,16.0,29.0,40,-99.99,,,-99.99,,2013-03-28 03:43:00,
2013-03-27 21:53:00,21.0,0.0,-100.00,SSW,207,16.0,29.0,40,-99.99,,,-99.99,,2013-03-28 03:53:00,
2013-03-27 22:00:00,20.0,0.0,-100.00,SSW,201,15.0,21.0,41,-99.99,,,-99.99,,2013-03-28 04:00:00,
2013-03-27 22:42:00,20.0,0.0,-100.00,SSW,201,15.0,21.0,41,-99.99,,,-99.99,,2013-03-28 04:42:00,
2013-03-27 22:52:00,20.0,0.0,-100.00,SSW,201,15.0,21.0,41,-99.99,,,-99.99,,2013-03-28 04:52:00,
2013-03-27 23:00:00,21.0,1.0,-100.00,SSW,194,16.0,21.0,42,-99.99,,,-99.99,,2013-03-28 05:00:00,
2013-03-27 23:43:00,21.0,1.0,-100.00,SSW,194,16.0,21.0,42,-99.99,,,-99.99,,2013-03-28 05:43:00,
2013-03-27 23:52:00,21.0,1.0,-100.00,SSW,194,16.0,21.0,42,-99.99,,,-99.99,,2013-03-28 05:52:00,